FLOCK 4V-22 (46735 NORAD) Tracking and Keplerian Element Data

This shows tracking and keplerian element data for the satellite.

Feedback or suggestion? Click here.




ElementValue
Catalog46735
NameFLOCK 4V-22
Epoch Orbit554
Epoch Day330.94653957
Epoch Year2020
RAAN42.4909
Inclination97.4512
Eccentricity0.0005045
Argument of Perigee311.3685
Mean Anonmoly48.7173
Mean Motion15.15300598
Decay Rate1.054E-05
L11 46735U 20061BL 20330.94653957 .00001054 00000-0 59442-4 0 9998
L22 46735 97.4512 42.4909 0005045 311.3685 48.7173 15.15300598 5545

Live tracking and technical data element details for FLOCK 4V-22 (NORAD 46735). FLOCK 4V-22 can be tracked NOW for your location showing map with azimuth and elevation plus other details from your city location.

Track the satellite on the map from your city or location and see movement details for azimuth, elevation, latitude, longitude, range, height, and movement on the map or in text.







IsCatalogInMostPopularTable: catalog: 46735, numindb: 8
Update: records affected: 1



GetName: 46735 FLOCK 4V-22

Hit Count: updated at: Thu, 26 Nov 2020 17:38:36 GMT